Tracking 19903 objects as of 16-Oct-2019
HD Live streaming from Space Station
objects crossing your sky now

CICERO 8

Track CICERO 8 now!
10-day predictions


NORAD ID: 43737
Int'l Code: 2018-096U
Perigee: 473.9 km
Apogee: 502.3 km
Inclination: 97.4 °
Period: 94.2 minutes
Semi major axis: 6859 km
RCS: Unknown
Launch date: November 29, 2018
Source: United States (US)
Launch site: SRIHARIKOTA (SRI)
aabbcc
Your satellite tracking list
Your tracking list is empty




NASA's NSSDC Master Catalog

Two Line Element Set (TLE):
1 43737U 18096U   19288.84728274  .00001860  00000-0  69948-4 0  9993
2 43737  97.4485 359.2122 0020728 279.2688  80.6207 15.28274544 48960
Source of the keplerian elements: AFSPC